CANAVERAL EAST 120NM East of Cape Canaveral (41010)

Conditions for Saturday

Daily
Weekly
Monthly
Marine Data Graph

Current Weather/Wave Observations

Air Temperature: 85° F
Humidity: 49
Wind direction (W Dir): ESE (105 - 114 Degrees)
Wind Speed (W Spd): 1.9 kts (2.2 mph)
Wind Gust (W Spd): 3.9 kts (4.5 mph)
Dominant Wave Period (DWP): 8 sec
Dominant Wave Height (DWH): 2.62 ft
Dominant Wave Range (DWR): exactly 2.6 ft
Wave Swell Period (WSP): 8 sec
Wave Swell Height (WSH): 3.28 ft
Wave Swell Range (WSR): 2.46 - 4.10 ft
Atmospheric Pressure (AP): 30.04 in
Pressure Tendency (PT): +0.02 in
Decreasing or steady, then increasing; or increasing, then increasing more rapidly

Updated: 9:50 PM EDT on July 23, 2016

Ad Blocker Enabled

Marine & Boating Location Search

Enter a coastal zip code for marine weather.

Current Wave Detail Observations

Water Depth: 6145 ft
Wave Height: 2.76 ft
Spectral Peak Period: 7.7 sec
Average Wave Period: 7.0 sec
Sampling Interval: 0.6 sec
Wave Record: 2400 sec

Updated: 10:00 PM EDT on July 23, 2016

General Information

Location: 28.903 North -78.464 West
Buoy Type: 3-meter discus buoy
Buoy Hull: 3D26
Payload: ARES payload
Owned by: NDBC
Windspeed: Measured by obtained from anemometer
Sea Surface: Measured by Intake

Weather and Wave Data

Time Temp Humidity Wind Dominant Wave Wave Swell Pressure
  Air
(°F)
Water
(°F)
  Dir Speed
(kts)
Speed
(mph)
Period
(sec)
Height
(ft)
Range
(ft)
Period
(sec)
Height
(ft)
Range
(ft)
Atmo.
(in)
Tend.
(in)
20:20 85 87 60 ENE 3.9 4.5 - - - 30.03 -
20:50 85 87 60 NE 3.9 4.5 9 4.27 exactly 4.3 9 4.92 4.10 - 5.74 30.03 -0.01
21:20 85 87 61 ENE 3.9 4.5 - - - 30.04 -
21:50 85 87 61 East 1.9 2.2 8 3.94 exactly 3.9 8 3.28 2.46 - 4.10 30.05 -
22:20 84 87 63 NE 1.9 2.2 - - - 30.05 -
22:50 84 87 63 North 1.9 2.2 9 3.94 exactly 3.9 9 3.28 2.46 - 4.10 30.05 +0.01
23:20 84 87 63 - 0.0 0.0 - - - 30.05 -
23:50 84 87 64 - 0.0 0.0 8 3.94 exactly 3.9 8 3.28 2.46 - 4.10 30.05 +0.01
00:20 84 87 64 - 0.0 0.0 - - - 30.05 -
00:50 84 87 64 West 1.9 2.2 9 3.61 exactly 3.6 9 3.28 2.46 - 4.10 30.05 -
01:20 84 87 63 - 0.0 0.0 - - - 30.04 -
01:50 84 87 63 - 0.0 0.0 8 3.94 exactly 3.9 8 3.28 2.46 - 4.10 30.04 -0.01
02:20 84 86 63 - 0.0 0.0 - - - 30.04 -
02:50 84 86 63 WNW 1.9 2.2 8 3.94 exactly 3.9 8 3.28 2.46 - 4.10 30.04 -0.01
03:20 84 86 64 NW 1.9 2.2 - - - 30.03 -
03:50 84 86 64 NW 3.9 4.5 9 3.94 exactly 3.9 9 3.28 2.46 - 4.10 30.02 -0.02
04:20 84 86 65 NW 3.9 4.5 - - - 30.02 -
04:50 84 86 63 NW 1.9 2.2 9 3.61 exactly 3.6 9 3.28 2.46 - 4.10 30.01 -0.03
05:20 83 86 64 NW 1.9 2.2 - - - 30.01 -
05:50 84 86 63 WNW 3.9 4.5 8 3.61 exactly 3.6 8 3.28 2.46 - 4.10 30.02 -0.02
06:20 83 87 65 NW 1.9 2.2 - - - 30.01 -
06:50 84 86 64 North 1.9 2.2 8 3.28 exactly 3.3 8 3.28 2.46 - 4.10 30.02 -
07:20 84 86 62 North 3.9 4.5 - - - 30.02 -
07:50 85 86 58 NNE 1.9 2.2 9 3.28 exactly 3.3 9 3.28 2.46 - 4.10 30.03 +0.02
08:20 85 86 58 North 1.9 2.2 - - - 30.04 -
08:50 84 86 61 North 3.9 4.5 9 3.28 exactly 3.3 9 3.28 2.46 - 4.10 30.03 +0.01
09:20 84 86 62 NNE 5.8 6.7 - - - 30.04 -
09:50 84 87 62 North 3.9 4.5 8 3.28 exactly 3.3 8 3.28 2.46 - 4.10 30.04 +0.02
10:20 84 87 62 NNE 5.8 6.7 - - - 30.05 -
10:50 84 87 62 NNE 3.9 4.5 9 2.95 exactly 3.0 9 3.28 2.46 - 4.10 30.06 +0.03
11:20 84 87 63 North 5.8 6.7 - - - 30.06 -
11:50 84 87 62 NNE 5.8 6.7 8 2.95 exactly 3.0 8 3.28 2.46 - 4.10 30.07 +0.04
12:20 84 87 62 NNE 3.9 4.5 - - - 30.07 -
12:50 84 87 58 NNE 3.9 4.5 9 2.95 exactly 3.0 9 3.28 2.46 - 4.10 30.06 +0.03
13:20 84 87 57 NNE 3.9 4.5 - - - 30.06 -
13:50 85 88 54 North 3.9 4.5 9 2.95 exactly 3.0 9 3.28 2.46 - 4.10 30.05 -
14:20 85 88 53 North 3.9 4.5 - - - 30.04 -
14:50 85 88 52 NNE 3.9 4.5 9 2.95 exactly 3.0 9 3.28 2.46 - 4.10 30.04 -0.03
15:20 85 88 54 NNE 3.9 4.5 - - - 30.04 -
15:50 85 88 56 NNE 3.9 4.5 8 2.95 exactly 3.0 8 3.28 2.46 - 4.10 30.02 -0.04
16:20 85 87 57 NE 5.8 6.7 - - - 30.02 -
16:50 85 88 53 NNE 5.8 6.7 8 2.95 exactly 3.0 8 3.28 2.46 - 4.10 30.01 -0.04
17:20 85 88 49 NNE 3.9 4.5 - - - 30.02 -
17:50 85 88 51 ENE 3.9 4.5 8 2.95 exactly 3.0 8 3.28 2.46 - 4.10 30.02 -0.02
18:20 85 88 52 NE 1.9 2.2 - - - 30.01 -
18:50 85 88 50 NE 1.9 2.2 8 2.95 exactly 3.0 8 3.28 2.46 - 4.10 30.02 -
19:20 85 88 51 NE 1.9 2.2 - - - 30.02 -
19:50 85 88 52 NE 3.9 4.5 9 2.95 exactly 3.0 9 3.28 2.46 - 4.10 30.02 +0.01
20:20 85 87 51 ENE 3.9 4.5 - - - 30.02 -
20:50 85 87 50 ENE 3.9 4.5 8 2.62 exactly 2.6 8 3.28 2.46 - 4.10 30.03 +0.01
21:20 85 87 48 East 3.9 4.5 - - - 30.03 -
21:50 85 87 49 ESE 1.9 2.2 8 2.62 exactly 2.6 8 3.28 2.46 - 4.10 30.04 +0.02

Detailed Wave Spectra

Time Water Depth Wave Height Spectral Peak Period Average Wave Period Sampling Interval Wave Record
20:00 6145 ft 3.84 ft 9.1 sec 7.4 sec 0.6 sec 2400 sec
21:00 6145 ft 4.33 ft 9.1 sec 7.5 sec 0.6 sec 2400 sec
22:00 6145 ft 3.81 ft 8.3 sec 6.9 sec 0.6 sec 2400 sec
23:00 6145 ft 3.87 ft 9.1 sec 7.2 sec 0.6 sec 2400 sec
00:00 6145 ft 3.84 ft 8.3 sec 7.2 sec 0.6 sec 2400 sec
01:00 6145 ft 3.61 ft 9.1 sec 6.9 sec 0.6 sec 2400 sec
02:00 6145 ft 3.84 ft 8.3 sec 7.2 sec 0.6 sec 2400 sec
03:00 6145 ft 3.94 ft 8.3 sec 7.2 sec 0.6 sec 2400 sec
04:00 6145 ft 4.07 ft 9.1 sec 7.3 sec 0.6 sec 2400 sec
05:00 6145 ft 3.71 ft 9.1 sec 7.0 sec 0.6 sec 2400 sec
06:00 6145 ft 3.51 ft 8.3 sec 6.8 sec 0.6 sec 2400 sec
07:00 6145 ft 3.22 ft 8.3 sec 6.8 sec 0.6 sec 2400 sec
08:00 6145 ft 3.41 ft 9.1 sec 7.2 sec 0.6 sec 2400 sec
09:00 6145 ft 3.38 ft 9.1 sec 7.2 sec 0.6 sec 2400 sec
10:00 6145 ft 3.15 ft 8.3 sec 7.1 sec 0.6 sec 2400 sec
11:00 6145 ft 2.95 ft 9.1 sec 7.0 sec 0.6 sec 2400 sec
12:00 6145 ft 2.99 ft 8.3 sec 6.8 sec 0.6 sec 2400 sec
13:00 6145 ft 3.12 ft 9.1 sec 7.2 sec 0.6 sec 2400 sec
14:00 6145 ft 3.05 ft 9.1 sec 7.1 sec 0.6 sec 2400 sec
15:00 6145 ft 2.85 ft 9.1 sec 7.1 sec 0.6 sec 2400 sec
16:00 6145 ft 2.85 ft 8.3 sec 7.1 sec 0.6 sec 2400 sec
17:00 6145 ft 3.02 ft 8.3 sec 7.2 sec 0.6 sec 2400 sec
18:00 6145 ft 3.08 ft 8.3 sec 7.4 sec 0.6 sec 2400 sec
19:00 6145 ft 2.95 ft 8.3 sec 7.1 sec 0.6 sec 2400 sec
20:00 6145 ft 2.95 ft 9.1 sec 7.2 sec 0.6 sec 2400 sec
21:00 6145 ft 2.76 ft 7.7 sec 7.2 sec 0.6 sec 2400 sec
22:00 6145 ft 2.76 ft 7.7 sec 7.0 sec 0.6 sec 2400 sec